| time (UTC) | temp F | wind direction | speed knots | gust knots | rain 1hr in | rain 24hr in | rain mn in | humidity % | barometer mb |
| 20260504204601 | 81 | 293 | 0.0 | 4.3 | 0.00 | 0.00 | 0.00 | 23 | 1012.8 |
| 20260504203047 | 81 | 276 | 0.0 | 1.7 | 0.00 | 0.00 | 0.00 | 21 | 1012.9 |
| 20260504201547 | 80 | 96 | 0.0 | 0.9 | 0.00 | 0.00 | 0.00 | 21 | 1013.1 |
| 20260504200045 | 79 | 155 | 0.0 | 0.0 | 0.00 | 0.00 | 0.00 | 25 | 1013.3 |
| 20260504194542 | 78 | 211 | 0.0 | 0.9 | 0.00 | 0.00 | 0.00 | 25 | 1013.5 |
| 20260504193037 | 78 | 169 | 0.0 | 0.0 | 0.00 | 0.00 | 0.00 | 26 | 1013.7 |
| 20260504191538 | 78 | 62 | 0.0 | 0.0 | 0.00 | 0.00 | 0.00 | 25 | 1013.9 |
| 20260504190036 | 78 | 81 | 0.0 | 0.9 | 0.00 | 0.00 | 0.00 | 25 | 1014.2 |
| 20260504184535 | 77 | 345 | 0.0 | 0.9 | 0.00 | 0.00 | 0.00 | 26 | 1014.4 |
| 20260504183032 | 77 | 90 | 0.0 | 0.0 | 0.00 | 0.00 | 0.00 | 29 | 1014.6 |
| 20260504181525 | 77 | 347 | 0.0 | 0.0 | 0.00 | 0.00 | 0.00 | 29 | 1014.7 |
| 20260504180022 | 76 | 311 | 0.0 | 0.0 | 0.00 | 0.00 | 0.00 | 31 | 1015.0 |
| 20260504174519 | 75 | 105 | 0.0 | 0.0 | 0.00 | 0.00 | 0.00 | 31 | 1015.1 |
| 20260504173017 | 74 | 324 | 0.0 | 0.0 | 0.00 | 0.00 | 0.00 | 33 | 1015.3 |
| 20260504171513 | 73 | 138 | 0.0 | 0.0 | 0.00 | 0.00 | 0.00 | 33 | 1015.6 |
| 20260504081501 | 48 | 20 | 0.0 | 0.0 | 0.00 | 0.00 | 0.00 | 72 | 1016.6 |
| 20260504044533 | 52 | 44 | 0.0 | 0.0 | 0.00 | 0.00 | 0.00 | 61 | 1017.2 |
| 20260504043039 | 52 | 44 | 0.0 | 0.0 | 0.00 | 0.00 | 0.00 | 63 | 1017.3 |
| 20260504041531 | 52 | 44 | 0.0 | 0.0 | 0.00 | 0.00 | 0.00 | 60 | 1017.4 |
| 20260504040028 | 51 | 44 | 0.0 | 0.0 | 0.00 | 0.00 | 0.00 | 64 | 1017.3 |
| 20260504034528 | 51 | 44 | 0.0 | 0.0 | 0.00 | 0.00 | 0.00 | 65 | 1017.4 |
| 20260504033027 | 52 | 44 | 0.0 | 0.0 | 0.00 | 0.00 | 0.00 | 63 | 1017.3 |
| 20260504031529 | 52 | 44 | 0.0 | 0.0 | 0.00 | 0.00 | 0.00 | 65 | 1017.4 |
| 20260504030027 | 52 | 44 | 0.0 | 0.0 | 0.00 | 0.00 | 0.00 | 63 | 1017.3 |
| 20260504024525 | 52 | 44 | 0.0 | 0.0 | 0.00 | 0.00 | 0.00 | 62 | 1017.3 |
| 20260504023025 | 53 | 44 | 0.0 | 0.0 | 0.00 | 0.00 | 0.00 | 59 | 1017.1 |
| 20260504021524 | 53 | 44 | 0.0 | 0.0 | 0.00 | 0.00 | 0.00 | 56 | 1016.8 |
| 20260504020027 | 53 | 44 | 0.0 | 0.0 | 0.00 | 0.00 | 0.00 | 57 | 1016.7 |
| 20260504014533 | 54 | 44 | 0.0 | 0.0 | 0.00 | 0.00 | 0.00 | 56 | 1016.6 |
| 20260504013034 | 55 | 44 | 0.0 | 0.0 | 0.00 | 0.00 | 0.00 | 56 | 1016.5 |
| 20260504011522 | 55 | 44 | 0.0 | 0.0 | 0.00 | 0.00 | 0.00 | 53 | 1016.2 |
| 20260504010021 | 56 | 44 | 0.0 | 0.0 | 0.00 | 0.00 | 0.00 | 52 | 1016.1 |
| 20260504004522 | 58 | 44 | 0.0 | 0.0 | 0.00 | 0.00 | 0.00 | 46 | 1016.0 |
| 20260504003019 | 59 | 44 | 0.0 | 0.0 | 0.00 | 0.00 | 0.00 | 44 | 1015.8 |
| 20260504001521 | 61 | 44 | 0.0 | 0.0 | 0.00 | 0.00 | 0.00 | 42 | 1015.7 |
| 20260504000020 | 62 | 44 | 0.0 | 0.0 | 0.00 | 0.00 | 0.00 | 37 | 1015.7 |
| 20260503234521 | 63 | 34 | 0.0 | 0.0 | 0.00 | 0.00 | 0.00 | 35 | 1015.6 |
| 20260503233021 | 64 | 34 | 0.0 | 0.0 | 0.00 | 0.00 | 0.00 | 36 | 1015.6 |
| 20260503231519 | 65 | 40 | 0.0 | 0.0 | 0.00 | 0.00 | 0.00 | 31 | 1015.6 |
| 20260503230016 | 66 | 13 | 0.0 | 0.0 | 0.00 | 0.00 | 0.00 | 30 | 1015.7 |
| 20260503224515 | 67 | 33 | 0.0 | 0.0 | 0.00 | 0.00 | 0.00 | 29 | 1015.7 |
| 20260503223015 | 70 | 338 | 0.0 | 0.0 | 0.00 | 0.00 | 0.00 | 27 | 1015.8 |
| 20260503221513 | 74 | 277 | 0.0 | 0.0 | 0.00 | 0.00 | 0.00 | 25 | 1015.8 |
| 20260503220012 | 73 | 313 | 0.0 | 1.7 | 0.00 | 0.00 | 0.00 | 23 | 1015.8 |
| 20260503214512 | 73 | 91 | 0.0 | 0.0 | 0.00 | 0.00 | 0.00 | 22 | 1015.8 |
| 20260503213010 | 72 | 296 | 0.0 | 1.7 | 0.00 | 0.00 | 0.00 | 24 | 1016.0 |
| 20260503211509 | 73 | 87 | 0.0 | 3.5 | 0.00 | 0.00 | 0.00 | 23 | 1016.0 |
| 20260503210007 | 73 | 276 | 0.0 | 0.9 | 0.00 | 0.00 | 0.00 | 24 | 1016.1 |